sat.trackr.live / text

‹ back to catalog

STARLINK-5094

NORAD 53977 · 2022-125P

PAYLOAD ACTIVE UNKNOWN

§ Identity

Operator
Country
US
Launch date
2022-10-05
Launch site
AFWTR
Launch vehicle
Mass (kg)
RCS (m²)

Purposes: comms

External: N2YO · Heavens-Above · Gunter

§ Orbital elements

Epoch: 2026-09-20T14:09:10.349568Z

Period
93.79 min
Inclination
53.1579°
Eccentricity
0.0001697
Mean motion
15.35373918 rev/d
Perigee alt
458.6 km
Apogee alt
461.0 km
Semi-major
6,837.9 km
B*
5.5923e-5
RAAN
51.0275°
Arg perigee
98.9863°
Mean anomaly
261.1332°
Rev number
21,899

§ Raw data

STARLINK-50941 53977U 22125P   26263.58970312  .00001569  00000+0  55923-4 0  99952 53977  53.1579  51.0275 0001697  98.9863 261.1332 15.35373918218991

JSON: /api/v1/satellites/53977 · /tle

For live sub-satellite position, see the globe view (requires WebGL).

§ Visibility from observer

Set your observer location to see the next 7 days of passes ≥ 10°. The values pass through the URL so the page stays shareable.

No JS? Fill the form by hand. The geolocation button needs JavaScript.